| time (UTC) | temp C | wind direction | speed KPH | gust KPH | rain 1hr cm | rain 24hr cm | rain mn cm | humidity % | barometer mb |
| 20260902133023 | 23 | 274 | 0.0 | 0.0 | 0.00 | 0.00 | 1.02 | 88 | 1004.5 |
| 20260902130029 | 23 | 274 | 0.0 | 0.0 | 0.00 | 0.00 | 1.02 | 86 | 1004.6 |
| 20260902124610 | 24 | 274 | 0.0 | 0.0 | 0.00 | 0.00 | 1.02 | 86 | 1004.6 |
| 20260902123104 | 24 | 274 | 0.0 | 0.0 | 0.00 | 0.00 | 1.02 | 85 | 1004.7 |
| 20260902121526 | 24 | 274 | 0.0 | 0.0 | 0.00 | 0.00 | 1.02 | 85 | 1004.9 |
| 20260902120022 | 24 | 274 | 0.0 | 0.0 | 0.00 | 0.00 | 1.02 | 84 | 1005.1 |
| 20260902114618 | 25 | 274 | 0.0 | 0.0 | 0.00 | 0.00 | 1.02 | 84 | 1005.1 |
| 20260902113010 | 25 | 274 | 0.0 | 0.0 | 0.00 | 0.00 | 1.02 | 83 | 1005.1 |
| 20260902111601 | 25 | 274 | 0.0 | 0.0 | 0.00 | 0.00 | 1.02 | 83 | 1005.1 |
| 20260902110107 | 25 | 274 | 0.0 | 0.0 | 0.00 | 0.00 | 1.02 | 82 | 1005.1 |
| 20260902104506 | 25 | 274 | 0.0 | 0.0 | 0.00 | 0.00 | 1.02 | 82 | 1005.0 |
| 20260902103025 | 25 | 274 | 0.0 | 0.0 | 0.00 | 0.00 | 1.02 | 81 | 1004.9 |
| 20260902101504 | 26 | 274 | 0.0 | 0.0 | 0.00 | 0.00 | 1.02 | 80 | 1004.6 |
| 20260902100031 | 26 | 274 | 0.0 | 0.0 | 0.00 | 0.00 | 1.02 | 79 | 1004.5 |
| 20260902094515 | 26 | 274 | 0.0 | 0.0 | 0.00 | 0.00 | 1.02 | 78 | 1004.2 |
| 20260902093001 | 26 | 274 | 0.0 | 0.0 | 0.00 | 0.00 | 1.02 | 76 | 1004.1 |
| 20260902091507 | 27 | 274 | 0.0 | 0.0 | 0.00 | 0.00 | 1.02 | 74 | 1004.1 |
| 20260902090012 | 27 | 274 | 0.0 | 0.0 | 0.00 | 0.00 | 1.02 | 73 | 1004.1 |
| 20260902084523 | 28 | 274 | 0.0 | 0.0 | 0.00 | 0.00 | 1.02 | 71 | 1004.1 |
| 20260902083008 | 28 | 274 | 0.0 | 0.0 | 0.00 | 0.00 | 1.02 | 68 | 1004.4 |
| 20260902081537 | 28 | 266 | 0.0 | 0.0 | 0.00 | 0.00 | 1.02 | 65 | 1004.5 |
| 20260902080056 | 29 | 303 | 0.0 | 0.0 | 0.00 | 0.00 | 1.02 | 63 | 1004.3 |
| 20260902074506 | 29 | 314 | 0.0 | 0.0 | 0.00 | 0.00 | 1.02 | 63 | 1004.4 |
| 20260902073008 | 29 | 266 | 0.0 | 0.0 | 0.00 | 0.00 | 1.02 | 62 | 1004.4 |
| 20260902071511 | 28 | 281 | 0.0 | 0.0 | 0.00 | 0.00 | 1.02 | 65 | 1004.5 |
| 20260902064603 | 28 | 103 | 1.6 | 0.0 | 0.00 | 0.00 | 1.02 | 69 | 1004.6 |
| 20260902063058 | 27 | 239 | 0.0 | 0.0 | 0.00 | 0.00 | 1.02 | 74 | 1004.6 |
| 20260902061510 | 26 | 293 | 1.6 | 0.0 | 0.00 | 0.00 | 1.02 | 79 | 1004.4 |
| 20260902060045 | 25 | 274 | 1.6 | 0.0 | 0.00 | 0.00 | 1.02 | 81 | 1004.5 |
| 20260902054510 | 25 | 333 | 1.6 | 0.0 | 0.00 | 0.00 | 1.02 | 85 | 1004.6 |
| 20260902053022 | 25 | 264 | 1.6 | 0.0 | 0.00 | 0.00 | 1.02 | 88 | 1004.6 |
| 20260902051600 | 25 | 98 | 1.6 | 0.0 | 0.00 | 0.00 | 1.02 | 89 | 1004.6 |
| 20260902050009 | 24 | 112 | 0.0 | 0.0 | 0.00 | 0.00 | 1.02 | 89 | 1004.6 |
| 20260902044523 | 24 | 96 | 1.6 | 0.0 | 0.00 | 0.00 | 1.02 | 86 | 1004.7 |
| 20260902043017 | 24 | 115 | 1.6 | 0.0 | 0.00 | 0.00 | 1.02 | 81 | 1005.1 |
| 20260902041600 | 26 | 279 | 1.6 | 0.0 | 0.00 | 0.00 | 0.99 | 75 | 1005.1 |
| 20260902033007 | 32 | 239 | 0.0 | 0.0 | 0.00 | 0.00 | 0.00 | 57 | 1004.0 |
| 20260902031558 | 32 | 287 | 0.0 | 0.0 | 0.00 | 0.00 | 0.00 | 60 | 1004.3 |
| 20260902030008 | 31 | 255 | 0.0 | 0.0 | 0.00 | 0.00 | 0.00 | 61 | 1004.4 |
| 20260902024514 | 31 | 286 | 0.0 | 0.0 | 0.00 | 0.00 | 0.00 | 62 | 1004.5 |
| 20260902023004 | 30 | 172 | 0.0 | 0.0 | 0.00 | 0.00 | 0.00 | 66 | 1004.6 |
| 20260902021600 | 29 | 124 | 0.0 | 0.0 | 0.00 | 0.00 | 0.00 | 68 | 1005.0 |
| 20260902020011 | 28 | 131 | 0.0 | 0.0 | 0.00 | 0.00 | 0.00 | 69 | 1005.1 |
| 20260902014535 | 28 | 246 | 0.0 | 0.0 | 0.00 | 0.00 | 0.00 | 70 | 1005.2 |
| 20260902013100 | 28 | 315 | 1.6 | 0.0 | 0.00 | 0.00 | 0.00 | 73 | 1005.4 |
| 20260902011554 | 27 | 274 | 0.0 | 0.0 | 0.00 | 0.00 | 0.00 | 80 | 1005.6 |
| 20260902010002 | 26 | 256 | 0.0 | 0.0 | 0.00 | 0.00 | 0.00 | 89 | 1005.7 |
| 20260902004514 | 25 | 112 | 0.0 | 0.0 | 0.00 | 0.00 | 0.00 | 95 | 1005.7 |
| 20260902003033 | 25 | 282 | 0.0 | 0.0 | 0.00 | 0.00 | 0.00 | 97 | 1005.7 |
| 20260902001548 | 23 | 237 | 0.0 | 0.0 | 0.00 | 0.00 | 0.00 | 98 | 1005.9 |
| 20260902000021 | 23 | 137 | 0.0 | 0.0 | 0.00 | 0.00 | 0.00 | 97 | 1006.1 |
| 20260901234501 | 22 | 101 | 0.0 | 0.0 | 0.00 | 0.00 | 0.00 | 97 | 1006.0 |
| 20260901233010 | 22 | 108 | 0.0 | 0.0 | 0.00 | 0.00 | 0.00 | 98 | 1006.2 |
| 20260901231507 | 22 | 108 | 0.0 | 0.0 | 0.00 | 0.00 | 0.00 | 98 | 1006.0 |
| 20260901230011 | 22 | 128 | 0.0 | 0.0 | 0.00 | 0.00 | 0.00 | 98 | 1006.0 |
| 20260901223013 | 21 | 128 | 0.0 | 0.0 | 0.00 | 0.00 | 0.00 | 97 | 1005.9 |
| 20260901221520 | 21 | 128 | 0.0 | 0.0 | 0.00 | 0.00 | 0.00 | 97 | 1005.9 |
| 20260901220121 | 21 | 128 | 0.0 | 0.0 | 0.00 | 0.00 | 0.00 | 97 | 1006.1 |
| 20260901213006 | 20 | 128 | 0.0 | 0.0 | 0.00 | 0.00 | 0.00 | 97 | 1006.2 |
| 20260901211501 | 20 | 128 | 0.0 | 0.0 | 0.00 | 0.00 | 0.00 | 97 | 1006.1 |
| 20260901210023 | 20 | 128 | 0.0 | 0.0 | 0.00 | 0.00 | 0.00 | 97 | 1006.0 |
| 20260901204516 | 20 | 128 | 0.0 | 0.0 | 0.00 | 0.00 | 0.00 | 97 | 1006.0 |
| 20260901203103 | 20 | 128 | 0.0 | 0.0 | 0.00 | 0.00 | 0.00 | 97 | 1006.1 |
| 20260901201521 | 20 | 128 | 0.0 | 0.0 | 0.00 | 0.00 | 0.00 | 97 | 1006.1 |
| 20260901200016 | 20 | 103 | 0.0 | 0.0 | 0.00 | 0.00 | 0.00 | 97 | 1006.2 |
| 20260901194601 | 20 | 103 | 0.0 | 0.0 | 0.00 | 0.00 | 0.00 | 97 | 1006.2 |
| 20260901193027 | 20 | 103 | 0.0 | 0.0 | 0.00 | 0.00 | 0.00 | 97 | 1006.2 |
| 20260901191553 | 20 | 103 | 0.0 | 0.0 | 0.00 | 0.00 | 0.00 | 97 | 1006.2 |
| 20260901190012 | 20 | 103 | 0.0 | 0.0 | 0.00 | 0.00 | 0.00 | 97 | 1006.4 |
| 20260901184513 | 20 | 103 | 0.0 | 0.0 | 0.00 | 0.00 | 0.00 | 97 | 1006.5 |
| 20260901183103 | 20 | 103 | 0.0 | 0.0 | 0.00 | 0.00 | 0.00 | 97 | 1006.7 |
| 20260901181605 | 20 | 103 | 0.0 | 0.0 | 0.00 | 0.00 | 0.00 | 97 | 1006.7 |
| 20260901180103 | 20 | 103 | 0.0 | 0.0 | 0.00 | 0.00 | 0.00 | 97 | 1006.7 |
| 20260901174521 | 20 | 103 | 0.0 | 0.0 | 0.00 | 0.00 | 0.00 | 97 | 1006.7 |
| 20260901173024 | 20 | 103 | 0.0 | 0.0 | 0.00 | 0.00 | 0.00 | 97 | 1007.0 |
| 20260901171522 | 20 | 103 | 0.0 | 0.0 | 0.00 | 0.00 | 0.00 | 97 | 1007.0 |
| 20260901170052 | 20 | 103 | 0.0 | 0.0 | 0.00 | 0.00 | 0.00 | 96 | 1007.2 |
| 20260901164510 | 20 | 103 | 0.0 | 0.0 | 0.00 | 0.00 | 0.00 | 96 | 1007.2 |
| 20260901163038 | 20 | 103 | 0.0 | 0.0 | 0.00 | 0.00 | 0.00 | 96 | 1007.0 |
| 20260901161602 | 20 | 103 | 0.0 | 0.0 | 0.00 | 0.00 | 0.00 | 96 | 1007.2 |
| 20260901160017 | 20 | 103 | 0.0 | 0.0 | 0.00 | 0.00 | 0.00 | 96 | 1007.6 |
| 20260901154502 | 20 | 103 | 0.0 | 0.0 | 0.00 | 0.00 | 0.00 | 96 | 1007.8 |
| 20260901151517 | 20 | 103 | 0.0 | 0.0 | 0.00 | 0.00 | 0.00 | 96 | 1008.2 |
| 20260901150004 | 20 | 103 | 0.0 | 0.0 | 0.00 | 0.00 | 0.23 | 96 | 1008.3 |
| 20260901144522 | 20 | 103 | 0.0 | 0.0 | 0.00 | 0.00 | 0.23 | 96 | 1008.4 |
| 20260901143030 | 20 | 103 | 0.0 | 0.0 | 0.00 | 0.00 | 0.23 | 96 | 1008.5 |
| 20260901141526 | 20 | 103 | 0.0 | 0.0 | 0.00 | 0.00 | 0.23 | 96 | 1008.7 |
| 20260901140008 | 20 | 103 | 0.0 | 0.0 | 0.00 | 0.00 | 0.23 | 96 | 1008.8 |